Weather History for Chino, CA

Change the Weather History Date:

Wednesday, November 6, 2013

  Actual Average Record
Temperature  
Mean Temperature 60 °F -  
Max Temperature 84 °F 70 °F 93 °F (2006)
Min Temperature 37 °F 44 °F 37 °F (2011)
Degree Days  
Heating Degree Days 4    
Growing Degree Days 10 (Base 50)    
Moisture  
Dew Point 23 °F    
Average Humidity 29    
Maximum Humidity 73    
Minimum Humidity 7    
Precipitation  
Precipitation 0.00 in - - ()
Sea Level Pressure  
Sea Level Pressure 30.16 in    
Wind  
Wind Speed 3 mph (ENE)    
Max Wind Speed 12 mph    
Max Gust Speed 17 mph    
Visibility 10 miles    
Events      
Averages and records for this station are not official NWS values.
T = Trace of Precipitation, MM = Missing Value Source: NWS Daily Summary

Daily Weather History Graph

Daily Weather History Graph

Search for Another Location

Airport:

Trip Planner

Search our weather history database for the weather conditions in past years. The results will help you decide how hot, cold, wet, or windy it might be!

Date:

Astronomy

Nov. 06, 2013 Rise Set
Actual Time 6:14 AM PST 4:53 PM PST
Civil Twilight 5:48 AM PST 5:19 PM PST
Nautical Twilight 5:18 AM PST 5:48 PM PST
Astronomical Twilight 4:49 AM PST 6:18 PM PST
Moon 9:30 AM PST (11/6) 8:05 PM PST (11/6)
Length of Visible Light 11h 30m
Length of Day
10h 38m
Waxing Crescent, 14% of the Moon is Illuminated
Nov 6
Waxing Crescent
Nov 9
First Quarter
Nov 17
Full
Nov 25
Last Quarter
Dec 2
New

Hourly Weather History & Observations

Time (PST) Temp. Windchill Dew Point Humidity Pressure Visibility Wind Dir Wind Speed Gust Speed Precip Events Conditions
12:53 AM 48.0 °F - 33.1 °F 56% 30.17 in 8.0 mi Calm Calm - N/A   Clear
1:53 AM 48.0 °F - 30.9 °F 52% 30.17 in 10.0 mi NNE 3.5 mph - N/A   Clear
2:53 AM 42.1 °F - 30.0 °F 62% 30.17 in 10.0 mi Calm Calm - N/A   Clear
3:53 AM 44.1 °F 42.5 °F 28.9 °F 55% 30.17 in 9.0 mi East 3.5 mph - N/A   Clear
4:53 AM 41.0 °F 39.0 °F 33.1 °F 73% 30.18 in 8.0 mi North 3.5 mph - N/A   Clear
5:53 AM 37.9 °F 35.5 °F 30.0 °F 73% 30.19 in 7.0 mi NW 3.5 mph - N/A   Clear
6:53 AM 51.1 °F - 27.0 °F 39% 30.20 in 10.0 mi Calm Calm - N/A   Clear
7:53 AM 61.0 °F - 24.1 °F 24% 30.21 in 10.0 mi Calm Calm - N/A   Partly Cloudy
8:53 AM 72.0 °F - 16.0 °F 12% 30.21 in 9.0 mi ESE 8.1 mph - N/A   Partly Cloudy
9:53 AM 75.0 °F - 16.0 °F 11% 30.21 in 10.0 mi East 10.4 mph - N/A   Clear
10:53 AM 81.0 °F - 15.1 °F 8% 30.19 in 10.0 mi ESE 8.1 mph 16.1 mph N/A   Clear
11:53 AM 82.0 °F - 23.0 °F 11% 30.16 in 10.0 mi Variable 5.8 mph - N/A   Clear
12:53 PM 84.0 °F - 19.9 °F 9% 30.14 in 10.0 mi Variable 4.6 mph - N/A   Partly Cloudy
1:53 PM 82.9 °F - 12.9 °F 7% 30.13 in 10.0 mi East 11.5 mph - N/A   Scattered Clouds
2:53 PM 82.9 °F - 10.9 °F 7% 30.12 in 10.0 mi East 10.4 mph 17.3 mph N/A   Scattered Clouds
3:53 PM 81.0 °F - 14.0 °F 8% 30.12 in 10.0 mi Variable 5.8 mph - N/A   Clear
4:53 PM 75.9 °F - 12.9 °F 9% 30.12 in 10.0 mi East 4.6 mph - N/A   Scattered Clouds
5:53 PM 69.1 °F - 19.9 °F 15% 30.15 in 10.0 mi Calm Calm - N/A   Partly Cloudy
6:53 PM 64.0 °F - 21.0 °F 19% 30.16 in 10.0 mi SW 5.8 mph - N/A   Clear
7:53 PM 60.1 °F - 25.0 °F 26% 30.16 in 10.0 mi Calm Calm - N/A   Clear
8:53 PM 53.1 °F - 30.9 °F 43% 30.17 in 8.0 mi Calm Calm - N/A   Clear
9:53 PM 55.0 °F - 27.0 °F 34% 30.16 in 10.0 mi Calm Calm - N/A   Clear
10:53 PM 59.0 °F - 21.9 °F 24% 30.14 in 10.0 mi ENE 4.6 mph - N/A   Clear
11:53 PM 55.0 °F - 23.0 °F 29% 30.12 in 10.0 mi ENE 3.5 mph - N/A   Clear